Flag Weather past 2 weeks in Ottawa, Ontario, Canada

Now
34 °F

Passing clouds.


Feels Like: 29 °F
Forecast: 35 / 44 °F
Wind: 6 mph from West

Location: Ottawa Int'L. Ont.

Current Time: Oct 30, 2014 at 9:19:48 AM

Latest Report: Oct 30, 2014 at 8:00 AM


Visibility: 15 mi

Pressure: 29.99 "Hg

Humidity: 93%

Dew point: 32 °F

Location of OttawaLocation

Historic Weather in Ottawa — Graph

°F

Ottawa temperature yesterday

Maximum temperature yesterday: 55 °F (at 3:00 PM)
Minimum temperature yesterday: 46 °F (at 10:00 PM)
Average temperature yesterday: 50 °F

Past Weeks' High & Low Weather Summary

 TemperatureHumidityPressure
High73 °F (Oct 15, 1:00 PM)100% (Oct 16, 12:00 AM)30.30 "Hg (Oct 16, 12:00 AM)
Low28 °F (Oct 20, 3:00 AM)42% (Oct 24, 3:00 PM)29.44 "Hg (Oct 18, 4:00 AM)
Average49 °F82%29.84 "Hg
* Reported Oct 15 8:00 AM — Oct 30 8:00 AM, Ottawa, Weather by CustomWeather, © 2014

Note: Actual official high and low records may vary slightly from our data, if they occured in-between our weather recording intervals... More about our weather records

Advertising

Ottawa weather history for previous 24 hours

 ConditionsComfort  
Time TempWeatherWind HumidityBarometerVisibility
8:00 AM
Oct 30
34 °FPassing clouds.6 mph93%29.99 "Hg15 mi
7:00 AM34 °FClear.6 mph87%29.98 "Hg15 mi
6:00 AM37 °FClear.7 mph81%29.97 "Hg15 mi
5:00 AM37 °FPassing clouds.8 mph81%29.94 "Hg15 mi
4:00 AM39 °FPassing clouds.8 mph81%29.93 "Hg15 mi
3:00 AM43 °FPassing clouds.14 mph71%29.91 "Hg15 mi
2:00 AM45 °FPassing clouds.10 mph81%29.89 "Hg15 mi
1:00 AM45 °FPassing clouds.7 mph81%29.87 "Hg15 mi
12:00 AM46 °FOvercast.16 mph76%29.87 "Hg15 mi
11:00 PM
Oct 29
46 °FOvercast.12 mph76%29.86 "Hg15 mi
10:00 PM46 °FOvercast.10 mph76%29.85 "Hg15 mi
9:00 PM48 °FMostly cloudy.9 mph71%29.84 "Hg15 mi
8:00 PM48 °FOvercast.10 mph71%29.84 "Hg15 mi
7:00 PM48 °FOvercast.6 mph76%29.83 "Hg15 mi
6:00 PM50 °FPartly sunny.8 mph67%29.81 "Hg15 mi
5:00 PM52 °FBroken clouds.12 mph58%29.79 "Hg15 mi
4:00 PM54 °FBroken clouds.16 mph54%29.79 "Hg15 mi
3:00 PM55 °FBroken clouds.15 mph51%29.78 "Hg15 mi
2:00 PM54 °FBroken clouds.15 mph54%29.79 "Hg15 mi
1:00 PM52 °FBroken clouds.20 mph58%29.79 "Hg15 mi
12:00 PM52 °FBroken clouds.14 mph72%29.80 "Hg15 mi
11:00 AM50 °FPartly sunny.13 mph82%29.80 "Hg15 mi
10:00 AM50 °FPartly sunny.14 mph82%29.80 "Hg15 mi
9:00 AM50 °FPartly sunny.15 mph88%29.79 "Hg15 mi
Weather by CustomWeather, © 2014

See weather overviewHow to use our weather pages